Location: Unspecified
(0.0000°N, 0.0000°E)
Time: 00:47:25
(UTC+00:00)

Courier 1B Rocket - Visible Passes

Search period start: 13 December 2018 00:00
Search period end: 23 December 2018 00:00
Orbit: 920 x 1202 km, 28.2° (Epoch: 11 December)

Date Brightness Start Highest point End Pass type
(mag) Time Alt. Az. Time Alt. Az. Time Alt. Az.
13 Dec 6.7 04:28:19 10° SSW 04:33:36 28° SSE 04:38:54 10° E visible
13 Dec 7.0 19:44:29 10° W 19:51:00 29° SSW 19:57:15 10° SSE visible
14 Dec 7.2 03:28:08 10° SSW 03:32:26 19° SSE 03:36:40 10° ESE visible
14 Dec 5.3 05:19:50 10° SW 05:26:03 71° SSE 05:32:23 10° ENE visible
14 Dec 6.6 18:42:18 10° W 18:49:38 43° SSW 18:56:43 10° SE visible
14 Dec 7.7 20:40:24 10° SW 20:44:00 14° SSW 20:47:32 10° S visible
15 Dec 7.5 02:30:52 13° SSE 02:31:06 13° SSE 02:33:43 10° SE visible
15 Dec 5.9 04:19:07 10° SW 04:25:04 45° SSE 04:31:00 10° E visible
15 Dec 7.5 19:36:59 10° WSW 19:42:26 20° SSW 19:47:45 10° SSE visible
16 Dec 6.5 03:21:27 22° S 03:24:00 29° SSE 03:29:20 10° E visible
16 Dec 4.9 05:11:12 10° WSW 05:17:27 73° NNW 05:23:44 10° NE visible
16 Dec 7.2 18:34:20 10° W 18:40:57 30° SSW 18:47:26 10° SSE visible
17 Dec 7.4 02:25:38 15° ESE 02:25:38 15° ESE 02:27:14 10° ESE visible
17 Dec 5.0 04:12:07 21° SW 04:16:29 73° SSE 04:22:42 10° ENE visible
17 Dec 7.8 19:30:09 10° SW 19:34:02 14° SSW 19:37:52 10° S visible
18 Dec 5.8 03:16:16 44° SE 03:16:16 44° SE 03:21:26 10° ENE visible
18 Dec 5.2 05:02:56 10° W 05:08:52 45° NNW 05:14:49 10° NE visible
18 Dec 7.7 18:26:51 10° WSW 18:32:24 21° SSW 18:37:54 10° SSE visible
19 Dec 4.7 04:06:47 58° W 04:07:53 71° NNW 04:14:05 10° NE visible
20 Dec 6.6 03:10:44 25° ENE 03:10:44 25° ENE 03:13:08 10° ENE visible
20 Dec 5.8 04:57:11 19° WNW 05:00:20 28° NNW 05:05:35 10° NNE visible
20 Dec 7.8 18:20:04 10° SW 18:24:01 14° SSW 18:27:58 10° S visible
21 Dec 5.7 04:00:58 36° N 04:00:58 36° N 04:05:10 10° NE visible
22 Dec 6.3 04:51:02 18° NW 04:51:53 18° NNW 04:56:01 10° NNE visible
